Location: Zagreb
(45.8000°N, 16.0000°E)
Time: 09:49:20
(UTC+01:00)

ISS - Visible Passes

Search period start: 11 February 2026 00:00
Search period end: 21 February 2026 00:00
Orbit: 413 x 429 km, 51.6° (Epoch: 10 February)

Date Brightness Start Highest point End Pass type
(mag) Time Alt. Az. Time Alt. Az. Time Alt. Az.
12 Feb -2.1 06:19:57 10° SSW 06:23:00 34° SE 06:26:05 10° ENE visible
13 Feb -1.4 05:33:27 10° S 05:36:06 22° SE 05:38:45 10° E visible
14 Feb -1.0 04:47:56 12° SSE 04:49:13 14° SE 04:51:05 10° E visible
14 Feb -3.7 06:22:16 10° WSW 06:25:37 86° SSE 06:28:58 10° ENE visible
15 Feb -3.2 05:36:20 18° SW 05:38:34 56° SE 05:41:51 10° ENE visible
16 Feb -2.5 04:51:30 35° SE 04:51:32 35° SE 04:54:39 10° ENE visible
16 Feb -3.3 06:25:05 10° W 06:28:19 47° NNW 06:31:35 10° ENE visible
17 Feb -0.6 04:06:31 14° E 04:06:31 14° E 04:07:16 10° E visible
17 Feb -3.7 05:39:31 27° W 05:41:09 64° NNW 05:44:29 10° ENE visible
18 Feb -3.5 04:54:25 66° ENE 04:54:25 66° ENE 04:57:21 10° ENE visible
19 Feb -0.8 04:09:12 18° ENE 04:09:12 18° ENE 04:10:10 10° ENE visible
19 Feb -2.9 05:42:11 22° WNW 05:43:49 37° NNW 05:46:58 10° NE visible
20 Feb -3.1 04:56:54 44° N 04:56:54 44° N 04:59:47 10° NE visible
